Location: Isles
(48.9125°N, 2.8272°E)
Time: 10:22:53
(UTC+00:00)

Okean-O - Pass Details

Date: 03 February 2023
Orbit: 637 x 638 km, 98.1° (Epoch: 28 March)

Event Time Altitude Azimuth Distance (km) Brightness Sun altitude
Exits shadow 19:26:12 23° 359° (N) 1,356 4.3 -26.0°
Drops below altitude 10° 19:27:58 10° 352° (N) 2,043 5.3 -26.3°
Sets 19:30:12 0° 349° (N) 2,957 6.2 -26.6°
